Marysville, CA

6:24 AM PDT on August 17, 2019 (GMT -0700)
Yuba County

Weather History for KMYV - June, 2019

Change the Weather History Date:

Friday, June 14, 2019

  Actual Average Record
Temperature  
Mean Temperature 75 °F -  
Max Temperature 91 °F 90 °F 107 °F (2000)
Min Temperature 59 °F 59 °F 50 °F (1952)
Cooling Degree Days 10    
Growing Degree Days 25 (Base 50)    
Moisture  
Dew Point 57 °F    
Average Humidity 58    
Maximum Humidity 83    
Minimum Humidity 33    
Precipitation  
Precipitation 0.00 in - - ()
Sea Level Pressure  
Sea Level Pressure 29.86 in    
Wind  
Wind Speed 8 mph (SSE)    
Max Wind Speed 12 mph    
Max Gust Speed -    
Visibility 10 miles    
Events      
Averages and records for this station are not official NWS values.
T = Trace of Precipitation, MM = Missing Value Source: NWS Daily Summary

Daily Weather History Graph

Daily Weather History Graph

Search for Another Location

Airport or City:

Astronomy

Jun. 14, 2019 Rise Set
Actual Time 5:39 AM PDT 8:33 PM PDT
Civil Twilight 5:07 AM PDT 9:05 PM PDT
Nautical Twilight 4:27 AM PDT 9:46 PM PDT
Astronomical Twilight 3:40 AM PDT 10:32 PM PDT
Moon 6:02 PM PDT (6/14) 3:59 AM PDT (6/14)
Length of Visible Light 15h 58m
Length of Day
14h 53m
Waxing Gibbous, 93% of the Moon is Illuminated
Jun 14
Waxing Gibbous
Jun 17
Full
Jun 25
Last Quarter
Jul 2
New
Jul 9
First Quarter

Hourly Weather History & Observations

Time (PDT) Temp. Heat Index Dew Point Humidity Pressure Visibility Wind Dir Wind Speed Gust Speed Precip Events Conditions
12:53 AM 69.1 °F - 57.9 °F 68% 29.82 in 10.0 mi SSE 10.4 mph - N/A   Clear
1:53 AM 66.0 °F - 57.0 °F 73% 29.82 in 10.0 mi SSE 8.1 mph - N/A   Clear
2:53 AM 64.0 °F - 55.9 °F 75% 29.83 in 10.0 mi SSE 9.2 mph - N/A   Clear
3:53 AM 62.1 °F - 55.0 °F 78% 29.84 in 10.0 mi South 9.2 mph - N/A   Clear
4:53 AM 60.1 °F - 55.0 °F 83% 29.86 in 10.0 mi South 6.9 mph - N/A   Clear
5:53 AM 59.0 °F - 54.0 °F 83% 29.87 in 10.0 mi SSE 5.8 mph - N/A   Clear
6:53 AM 61.0 °F - 55.0 °F 81% 29.90 in 10.0 mi SSE 6.9 mph - N/A   Clear
7:53 AM 63.0 °F - 55.0 °F 75% 29.90 in 10.0 mi SSE 11.5 mph - N/A   Clear
8:53 AM 66.9 °F - 55.0 °F 66% 29.92 in 10.0 mi SE 6.9 mph - N/A   Clear
9:53 AM 70.0 °F - 55.0 °F 59% 29.91 in 10.0 mi SE 8.1 mph - N/A   Clear
10:53 AM 75.0 °F - 55.9 °F 51% 29.90 in 10.0 mi North - - N/A   Clear
11:53 AM 78.1 °F - 57.9 °F 50% 29.90 in 10.0 mi Variable 4.6 mph - N/A   Clear
12:53 PM 82.0 °F 82.1 °F 59.0 °F 45% 29.88 in 10.0 mi Variable 4.6 mph - N/A   Clear
1:53 PM 84.9 °F 84.8 °F 60.1 °F 43% 29.86 in 10.0 mi SE 6.9 mph - N/A   Clear
2:53 PM 88.0 °F 87.9 °F 61.0 °F 40% 29.85 in 10.0 mi SW 8.1 mph - N/A   Clear
3:53 PM 90.0 °F 89.7 °F 60.1 °F 37% 29.83 in 10.0 mi Variable 5.8 mph - N/A   Clear
4:53 PM 91.0 °F 90.9 °F 61.0 °F 36% 29.81 in 10.0 mi SSE 10.4 mph - N/A   Clear
5:53 PM 90.0 °F 89.1 °F 59.0 °F 35% 29.80 in 10.0 mi SE 9.2 mph - N/A   Clear
6:53 PM 90.0 °F 88.6 °F 57.0 °F 33% 29.79 in 10.0 mi SSE 8.1 mph - N/A   Clear